FLOCK 4S-16 (47516 NORAD) Tracking and Keplerian Element Data
This shows tracking and keplerian element data for the satellite.
Feedback or suggestion? Click here.
Element | Value |
Catalog | 47516 |
Name | FLOCK 4S-16 |
Epoch Orbit | 1355 |
Epoch Day | 105.94311206 |
Epoch Year | 2021 |
RAAN | 168.2451 |
Inclination | 97.5023 |
Eccentricity | 0.0007875 |
Argument of Perigee | 338.5325 |
Mean Anonmoly | 21.5574 |
Mean Motion | 15.12010796 |
Decay Rate | 1.546E-05 |
L1 | 1 47516U 21006DG 21105.94311206 .00001546 00000-0 93712-4 0 9999 |
L2 | 2 47516 97.5023 168.2451 0007875 338.5325 21.5574 15.12010796 13554 |
Live tracking and technical data element details for FLOCK 4S-16 (NORAD 47516). FLOCK 4S-16 can be tracked NOW for your location showing map with azimuth and elevation plus other details from your city location.
Track the satellite on the map from your city or location and see movement details for azimuth, elevation, latitude, longitude, range, height, and movement on the map or in text.
IsCatalogInMostPopularTable: catalog: 47516, numindb: 14
Update: records affected: 1
GetName: 47516 FLOCK 4S-16
Hit Count: updated at: Fri, 16 Apr 2021 11:01:59 GMT